User: anonymous   Login
Location: Unspecified
(0.0000°N, 0.0000°E)
Time: 19:19:21
(UTC+00:00)
Language:

LEMUR 2 SOKOLSKY - Orbit

View from above orbital plane
View from above orbital plane
View from above satellite
View from above satellite

Ground track
Ground track

The orbit data is extracted from the following two-line orbital elements,

1 41872U 16062D   19340.65445651 +.00001176 +00000-0 +58422-4 0  9990
2 41872 051.6829 110.0813 0002268 015.9250 344.1800 15.25929772168597
Epoch (UTC): 06 December 2019 15:42:25
Eccentricity: 0.0002268
inclination: 51.6829°
perigee height: 486 km
apogee height: 489 km
right ascension of ascending node: 110.0813°
argument of perigee: 15.9250°
revolutions per day: 15.25929772
mean anomaly at epoch: 344.1800°
orbit number at epoch: 16859

The dashed part of the orbit path shows where the satellite is in the earth's shadow,  

DLR